Find Starlink 3823

NORAD ID: 52336 Int'l Des: 2022-045 Owner: SPXS Country: US Constellation: starlink operational
LEOCIRCULAR

Live-Position

3D-Globus wird geladen...

Über Starlink 3823

Beschreibung wird geladen...

Nächste Überflüge

Passes for default location (London). Set your location on the main map for personalized predictions.

Höhenverlauf

Loading altitude history...

Zweizeiliger Elementsatz

1 52336U 22045F 26119.02307220 .00000763 00000-0 66034-4 0 9996
2 52336 53.2183 342.9606 0001427 90.0252 270.0904 15.08844948223241
Epoch: 29. Apr. 2026 • Age: 10 hours

Aktueller Status

Höhe 543.6 km
Geschwindigkeit 7.60 km/s
Subsatellitenpunkt 45.17°N, 96.07°E
Startdatum 29. Apr. 2022
Alter 3.9 years
Typ internet

Technische Details

Klassifizierung Payload
Masse 297.00 kg
Trockenmasse 275.00 kg
Gesamtmasse 297.00 kg
Länge 0.20 m
Durchmesser 2.80 m
Spannweite 9.00 m
Form Box + pan
Hersteller SPXS
Bus-Typ Starlink
Phasenstatus In Orbit
Besitzer/Staat SPXS/US

Most Searched